User: anonymous   Login
Location: Newark
(49.5647°N, 8.2922°E)
Time: 09:26:02
(UTC+00:00)
Language:

A-11 Canister half - Orbit

View from above orbital plane
View from above orbital plane
View from above satellite
View from above satellite

Ground track
Ground track

The orbit data is extracted from the following two-line orbital elements,

1    51U 60009C   20047.33412369 -.00000060 +00000-0 +23956-3 0  9990
2    51 047.2148 005.2228 0103979 160.7910 199.6841 12.18270872649203
Epoch (UTC): 16 February 2020 08:01:08
Eccentricity: 0.0103979
inclination: 47.2148°
perigee height: 1517 km
apogee height: 1683 km
right ascension of ascending node: 5.2228°
argument of perigee: 160.7910°
revolutions per day: 12.18270872
mean anomaly at epoch: 199.6841°
orbit number at epoch: 64920

The dashed part of the orbit path shows where the satellite is in the earth's shadow,  

DLR